CW6353 Weather Reports


Display with metric or nautical units.
time (UTC)temp
F
wind
direction
speed
MPH
gust
MPH
rain 1hr
in
rain 24hr
in
rain mn
in
humidity
%
barometer
mb
20260903152007 91 176 3.0 9.0 0.00 0.06 0.00 58 1018.2
20260903151505 91 66 4.0 9.0 0.00 0.06 0.00 54 1018.2
20260903151003 91 40 1.0 6.0 0.00 0.06 0.00 55 1018.2
20260903150503 91 80 4.0 6.0 0.00 0.06 0.00 58 1018.1
20260903150006 91 63 2.0 4.0 0.00 0.06 0.00 58 1018.1
20260903145505 91 123 2.0 4.0 0.00 0.06 0.00 61 1018.1
20260903145004 91 57 1.0 3.0 0.00 0.06 0.00 61 1018.1
20260903144532 90 51 2.0 3.0 0.00 0.06 0.00 59 1018.1
20260903144005 90 12 1.0 3.0 0.00 0.06 0.00 61 1018.0
20260903143504 90 70 2.0 3.0 0.00 0.06 0.00 63 1017.9
20260903143020 89 46 0.0 1.0 0.00 0.06 0.00 65 1017.9
20260903142506 88 40 0.0 3.0 0.00 0.06 0.00 67 1018.0
20260903142011 88 40 1.0 3.0 0.00 0.06 0.00 68 1017.9
20260903141515 88 124 0.0 0.0 0.00 0.06 0.00 66 1017.9
20260903141003 87 75 0.0 0.0 0.00 0.06 0.00 68 1017.9
20260903140510 87 243 0.0 0.0 0.00 0.06 0.00 69 1017.9
20260903140010 86 295 0.0 0.0 0.00 0.06 0.00 71 1017.9
20260903135504 86 126 0.0 0.0 0.00 0.06 0.00 76 1017.9
20260903135005 85 248 0.0 0.0 0.00 0.06 0.00 73 1017.9
20260903134505 84 126 0.0 0.0 0.00 0.06 0.00 74 1017.9
20260903134003 84 126 0.0 0.0 0.00 0.06 0.00 74 1017.9
20260903133509 84 124 0.0 0.0 0.00 0.06 0.00 74 1018.0
20260903133008 83 150 0.0 0.0 0.00 0.06 0.00 77 1018.0
20260903132512 83 97 0.0 0.0 0.00 0.06 0.00 78 1018.0
20260903132007 82 90 0.0 0.0 0.00 0.06 0.00 80 1018.0
20260903131503 81 90 0.0 0.0 0.00 0.06 0.00 80 1017.9
20260903131009 81 90 0.0 0.0 0.00 0.06 0.00 82 1017.9
20260903130508 80 90 0.0 0.0 0.00 0.06 0.00 84 1017.9
20260903130024 79 98 0.0 0.0 0.00 0.06 0.00 85 1017.9
20260903125512 78 107 0.0 0.0 0.00 0.06 0.00 86 1017.8
20260903125007 78 165 0.0 0.0 0.00 0.06 0.00 89 1017.8
20260903124525 77 165 0.0 0.0 0.00 0.06 0.00 92 1017.6
20260903124004 76 165 0.0 0.0 0.00 0.06 0.00 93 1017.6
20260903123506 75 165 0.0 0.0 0.00 0.06 0.00 93 1017.6
20260903123009 74 168 0.0 0.0 0.00 0.06 0.00 93 1017.6
20260903122508 74 167 0.0 0.0 0.00 0.06 0.00 93 1017.6
20260903122007 73 166 0.0 0.0 0.00 0.06 0.00 93 1017.7
20260903121528 73 165 0.0 0.0 0.00 0.06 0.00 94 1017.6
20260903121005 72 165 0.0 0.0 0.00 0.06 0.00 93 1017.6
20260903120504 72 166 0.0 0.0 0.00 0.06 0.00 93 1017.7
20260903120005 71 166 0.0 0.0 0.00 0.06 0.00 93 1017.7
20260903115503 71 166 0.0 0.0 0.00 0.06 0.00 93 1017.7
20260903115002 71 166 0.0 0.0 0.00 0.06 0.00 92 1017.6
20260903114505 71 166 0.0 0.0 0.00 0.06 0.00 92 1017.6
20260903114004 71 166 0.0 1.0 0.00 0.06 0.00 92 1017.6
20260903113502 71 166 0.0 2.0 0.00 0.06 0.00 92 1017.5
20260903113018 71 166 0.0 3.0 0.00 0.06 0.00 92 1017.4
20260903112502 71 166 0.0 3.0 0.00 0.06 0.00 92 1017.3
20260903112001 71 166 0.0 3.0 0.00 0.06 0.00 92 1017.3
20260903111510 71 166 0.0 2.0 0.00 0.06 0.00 92 1017.4
20260903111005 71 165 0.0 1.0 0.00 0.06 0.00 92 1017.3
20260903110502 71 165 0.0 0.0 0.00 0.06 0.00 92 1017.3
20260903110003 71 165 0.0 0.0 0.00 0.06 0.00 92 1017.2
20260903105503 71 165 0.0 0.0 0.00 0.06 0.00 92 1017.1
20260903105003 71 165 0.0 1.0 0.00 0.06 0.00 92 1017.2
20260903104504 71 171 0.0 1.0 0.00 0.06 0.00 92 1017.1
20260903104002 71 168 0.0 0.0 0.00 0.06 0.00 92 1017.1
20260903103504 71 167 0.0 0.0 0.00 0.06 0.00 92 1017.0
20260903103004 71 167 0.0 0.0 0.00 0.06 0.00 92 1017.1
20260903102504 71 167 0.0 1.0 0.00 0.06 0.00 92 1017.2
20260903102004 72 167 0.0 1.0 0.00 0.06 0.00 92 1017.0
20260903101510 72 167 0.0 0.0 0.00 0.06 0.00 92 1016.8
20260903101007 72 168 0.0 0.0 0.00 0.06 0.00 92 1016.9
20260903100503 72 168 0.0 0.0 0.00 0.06 0.00 92 1017.0
20260903100007 72 167 0.0 0.0 0.00 0.06 0.00 92 1017.0
20260903095502 72 166 0.0 0.0 0.00 0.06 0.00 92 1017.0
20260903095002 72 166 0.0 0.0 0.00 0.06 0.00 92 1017.1
20260903094511 72 166 0.0 0.0 0.00 0.06 0.00 92 1017.1
20260903094004 72 166 0.0 0.0 0.00 0.06 0.00 92 1017.0
20260903093505 72 166 0.0 0.0 0.00 0.06 0.00 92 1016.8
20260903093006 72 166 0.0 0.0 0.00 0.06 0.00 92 1016.8
20260903092506 72 166 0.0 0.0 0.00 0.06 0.00 92 1017.0
20260903092004 72 166 0.0 1.0 0.00 0.06 0.00 92 1016.8
20260903091508 72 167 0.0 1.0 0.00 0.06 0.00 92 1016.8
20260903091003 72 166 0.0 0.0 0.00 0.06 0.00 92 1016.9
20260903090507 72 166 0.0 2.0 0.00 0.06 0.00 92 1016.7
20260903090009 72 166 0.0 2.0 0.00 0.06 0.00 92 1016.7
20260903085502 72 166 0.0 0.0 0.00 0.06 0.00 92 1016.7
20260903085009 72 166 0.0 0.0 0.00 0.06 0.00 92 1016.7
20260903084508 72 167 0.0 0.0 0.00 0.06 0.00 92 1016.8
20260903084003 72 166 0.0 0.0 0.00 0.06 0.00 92 1016.7
20260903083507 72 166 0.0 0.0 0.00 0.06 0.00 92 1016.8
20260903083003 72 165 0.0 2.0 0.00 0.06 0.00 92 1016.9
20260903082503 72 165 0.0 2.0 0.00 0.06 0.00 92 1016.8
20260903082004 72 198 0.0 2.0 0.00 0.06 0.00 92 1016.8
20260903081505 72 198 1.0 2.0 0.00 0.06 0.00 92 1016.7
20260903081006 72 151 0.0 2.0 0.00 0.06 0.00 92 1016.8
20260903080503 72 151 0.0 2.0 0.00 0.06 0.00 92 1016.8
20260903080010 72 151 0.0 2.0 0.00 0.06 0.00 92 1016.8
20260903075509 72 151 1.0 2.0 0.00 0.06 0.00 92 1016.8
20260903075006 72 151 1.0 2.0 0.00 0.06 0.00 92 1016.7
20260903074517 72 151 1.0 4.0 0.00 0.06 0.00 92 1016.8
20260903074006 72 143 1.0 4.0 0.00 0.06 0.00 92 1016.8
20260903073503 72 114 0.0 1.0 0.00 0.06 0.00 92 1016.9
20260903073030 72 114 0.0 0.0 0.00 0.06 0.00 92 1017.0
20260903072503 72 114 0.0 0.0 0.00 0.06 0.00 92 1016.9
20260903072003 72 114 0.0 0.0 0.00 0.06 0.00 92 1017.0
20260903071507 72 114 0.0 0.0 0.00 0.06 0.00 92 1017.1
20260903071005 72 114 0.0 0.0 0.00 0.06 0.00 92 1017.0
20260903070504 72 114 0.0 0.0 0.00 0.06 0.00 92 1017.0
20260903070012 72 114 0.0 0.0 0.00 0.06 0.00 91 1017.1
20260903065504 72 114 0.0 0.0 0.00 0.06 0.00 91 1017.1
20260903065008 72 114 0.0 0.0 0.00 0.06 0.00 91 1017.0
20260903064511 72 114 0.0 0.0 0.00 0.06 0.00 91 1017.1
20260903064010 72 114 0.0 0.0 0.00 0.06 0.00 91 1017.1
20260903063510 72 114 0.0 0.0 0.00 0.06 0.00 91 1017.2
20260903063009 72 114 0.0 0.0 0.00 0.06 0.00 91 1017.2
20260903062512 72 114 0.0 0.0 0.00 0.06 0.00 91 1017.2
20260903062009 72 114 0.0 0.0 0.00 0.06 0.00 91 1017.2
20260903061507 72 114 0.0 0.0 0.00 0.06 0.00 91 1017.2
20260903061004 72 114 0.0 0.0 0.00 0.06 0.00 91 1017.1
20260903060504 72 114 0.0 0.0 0.00 0.06 0.00 91 1017.2
20260903060006 72 114 0.0 0.0 0.00 0.06 0.00 91 1017.2
20260903055506 72 114 0.0 0.0 0.00 0.06 0.00 91 1017.3
20260903055003 72 114 0.0 0.0 0.00 0.06 0.00 91 1017.2
20260903054517 72 114 0.0 0.0 0.00 0.06 0.00 91 1017.2
20260903054008 73 114 0.0 0.0 0.00 0.06 0.00 91 1017.2
20260903053504 73 114 0.0 0.0 0.00 0.06 0.00 91 1017.1
20260903053022 73 114 0.0 0.0 0.00 0.06 0.00 91 1017.1
20260903052506 73 114 0.0 0.0 0.00 0.06 0.00 91 1017.1
20260903052012 73 114 0.0 0.0 0.00 0.06 0.00 91 1017.1
20260903051538 73 114 0.0 0.0 0.00 0.06 0.00 91 1017.1
20260903051006 73 114 0.0 0.0 0.00 0.06 0.00 91 1017.0
20260903050519 73 114 0.0 0.0 0.00 0.06 0.00 91 1017.2
20260903050020 73 114 0.0 0.0 0.00 0.06 0.00 91 1017.2
20260903045514 73 114 0.0 0.0 0.00 0.06 0.06 91 1017.1
20260903045003 73 114 0.0 0.0 0.00 0.06 0.06 91 1017.1
20260903044511 73 114 0.0 0.0 0.00 0.06 0.06 90 1017.2
20260903044008 73 114 0.0 0.0 0.00 0.06 0.06 90 1017.2
20260903043508 73 114 0.0 0.0 0.00 0.06 0.06 91 1017.2
20260903043023 73 114 0.0 0.0 0.00 0.06 0.06 91 1017.2
20260903042510 73 114 0.0 0.0 0.00 0.06 0.06 91 1017.3
20260903042010 73 114 0.0 0.0 0.00 0.06 0.06 91 1017.2
20260903041503 73 114 0.0 1.0 0.00 0.06 0.06 91 1017.1
20260903041003 73 114 0.0 1.0 0.00 0.06 0.06 91 1017.2
20260903040504 73 114 0.0 0.0 0.00 0.06 0.06 91 1017.2
20260903040009 73 114 0.0 0.0 0.00 0.06 0.06 91 1017.3
20260903035502 73 114 0.0 0.0 0.00 0.06 0.06 91 1017.3
20260903035002 73 114 0.0 0.0 0.00 0.06 0.06 91 1017.3
20260903034503 73 114 0.0 0.0 0.00 0.06 0.06 91 1017.2
20260903034002 73 114 0.0 0.0 0.00 0.06 0.06 91 1017.1
20260903033502 73 114 0.0 0.0 0.00 0.06 0.06 91 1017.2
20260903033010 73 114 0.0 0.0 0.00 0.06 0.06 91 1017.2
20260903032506 73 114 0.0 0.0 0.00 0.06 0.06 91 1017.3
20260903032001 73 114 0.0 0.0 0.00 0.06 0.06 90 1017.3
20260903031502 73 114 0.0 0.0 0.00 0.06 0.06 90 1017.3
20260903031002 73 114 0.0 2.0 0.00 0.06 0.06 90 1017.3
20260903030503 73 114 0.0 2.0 0.00 0.06 0.06 90 1017.3
20260903030004 73 114 0.0 2.0 0.00 0.06 0.06 90 1017.3
20260903025502 73 123 0.0 0.0 0.00 0.06 0.06 90 1017.3
20260903025003 73 301 0.0 0.0 0.00 0.06 0.06 90 1017.2
20260903024506 73 301 0.0 0.0 0.00 0.06 0.06 90 1017.1
20260903024004 74 301 0.0 0.0 0.00 0.06 0.06 90 1017.2
20260903023503 74 301 0.0 0.0 0.00 0.06 0.06 90 1017.3
20260903023004 74 301 0.0 0.0 0.00 0.06 0.06 90 1017.4
20260903022502 74 301 0.0 0.0 0.00 0.06 0.06 90 1017.4
20260903022003 74 301 0.0 0.0 0.00 0.06 0.06 90 1017.3
20260903021504 74 301 0.0 0.0 0.00 0.06 0.06 90 1017.3
20260903021003 74 301 0.0 0.0 0.00 0.06 0.06 90 1017.3
20260903020502 74 301 0.0 0.0 0.00 0.06 0.06 90 1017.2
20260903020011 74 301 0.0 0.0 0.00 0.06 0.06 90 1017.1
20260903015504 74 301 0.0 0.0 0.00 0.06 0.06 90 1017.2
20260903015003 74 301 0.0 0.0 0.00 0.06 0.06 90 1017.1
20260903014503 74 301 0.0 0.0 0.00 0.06 0.06 90 1017.1
20260903014003 75 301 0.0 0.0 0.00 0.06 0.06 90 1017.0
20260903013503 75 301 0.0 0.0 0.00 0.06 0.06 89 1017.0
20260903013007 75 301 0.0 0.0 0.00 0.06 0.06 89 1016.7
20260903012503 75 301 0.0 0.0 0.00 0.06 0.06 89 1016.7
20260903012003 75 301 0.0 0.0 0.00 0.06 0.06 89 1016.7
20260903011513 75 301 0.0 0.0 0.00 0.06 0.06 89 1016.7
20260903011003 75 301 0.0 0.0 0.00 0.06 0.06 88 1016.7
20260903010504 76 301 0.0 0.0 0.00 0.06 0.06 88 1016.6
20260903010004 76 301 0.0 0.0 0.00 0.06 0.06 88 1016.5
20260903005504 76 301 0.0 0.0 0.00 0.06 0.06 88 1016.5
20260903005004 76 301 0.0 0.0 0.00 0.06 0.06 88 1016.5
20260903004506 77 301 0.0 0.0 0.00 0.06 0.06 88 1016.5
20260903004004 77 301 0.0 0.0 0.00 0.06 0.06 88 1016.5
20260903003503 77 301 0.0 0.0 0.00 0.06 0.06 88 1016.4
20260903003010 77 301 0.0 0.0 0.00 0.06 0.06 87 1016.4
20260903002504 78 301 0.0 0.0 0.00 0.06 0.06 87 1016.4
20260903002003 78 301 0.0 0.0 0.00 0.06 0.06 86 1016.3
20260903001504 78 301 0.0 1.0 0.00 0.06 0.06 86 1016.4
20260903001006 79 301 0.0 2.0 0.00 0.06 0.06 86 1016.5
20260903000504 79 301 1.0 2.0 0.00 0.06 0.06 85 1016.4
20260903000006 79 171 0.0 4.0 0.00 0.06 0.06 85 1016.4
20260902235505 79 171 0.0 4.0 0.00 0.06 0.06 84 1016.4
20260902235008 80 184 0.0 2.0 0.00 0.06 0.06 84 1016.5
20260902234503 80 277 0.0 2.0 0.00 0.06 0.06 84 1016.3
20260902234006 81 277 0.0 2.0 0.00 0.06 0.06 82 1016.3
20260902233508 81 277 1.0 2.0 0.00 0.06 0.06 81 1016.3
20260902233007 81 257 1.0 2.0 0.00 0.06 0.06 79 1016.3
20260902232508 82 257 0.0 4.0 0.00 0.06 0.06 79 1016.4
20260902232006 82 202 1.0 7.0 0.00 0.06 0.06 75 1016.5
20260902231505 82 258 4.0 7.0 0.01 0.06 0.06 78 1016.4
20260902231004 83 278 1.0 2.0 0.06 0.06 0.06 82 1016.2
20260902230504 83 278 0.0 3.0 0.06 0.06 0.06 79 1016.2
20260902230008 83 278 1.0 7.0 0.06 0.06 0.06 76 1016.2
20260902225504 82 226 3.0 7.0 0.06 0.06 0.06 76 1016.4
20260902225004 83 218 3.0 9.0 0.06 0.06 0.06 75 1016.3
20260902224508 83 190 4.0 9.0 0.06 0.06 0.06 78 1016.3
20260902224006 83 186 1.0 8.0 0.06 0.06 0.06 79 1016.3
20260902223509 84 162 5.0 8.0 0.06 0.06 0.06 76 1016.4
20260902223020 86 26 1.0 5.0 0.06 0.06 0.06 77 1016.3
20260902222504 87 18 1.0 6.0 0.06 0.06 0.06 71 1016.3
20260902222006 90 318 3.0 9.0 0.06 0.06 0.06 65 1016.2
20260902221504 94 298 5.0 9.0 0.05 0.05 0.05 51 1016.3
20260902221003 96 53 5.0 8.0 0.00 0.00 0.00 47 1016.3
20260902220506 95 343 3.0 5.0 0.00 0.00 0.00 46 1016.3
20260902220009 95 360 3.0 6.0 0.00 0.00 0.00 47 1016.4
20260902215504 95 32 2.0 8.0 0.00 0.00 0.00 48 1016.4
20260902215003 95 326 3.0 8.0 0.00 0.00 0.00 46 1016.4
20260902214508 95 360 4.0 7.0 0.00 0.00 0.00 46 1016.4
20260902214007 95 92 1.0 6.0 0.00 0.00 0.00 47 1016.4
20260902213508 95 9 2.0 8.0 0.00 0.00 0.00 48 1016.4
20260902213008 95 9 3.0 12.0 0.00 0.00 0.00 47 1016.5
20260902212506 95 9 7.0 12.0 0.00 0.00 0.00 48 1016.5
20260902212007 95 64 3.0 7.0 0.00 0.00 0.00 47 1016.5
20260902211506 95 24 2.0 10.0 0.00 0.00 0.00 48 1016.5
20260902211007 96 56 6.0 10.0 0.00 0.00 0.00 46 1016.5
20260902210504 96 50 4.0 9.0 0.00 0.00 0.00 46 1016.6
20260902210007 95 19 4.0 9.0 0.00 0.00 0.00 46 1016.6
20260902205505 95 71 3.0 9.0 0.00 0.00 0.00 44 1016.6
20260902205003 95 73 5.0 8.0 0.00 0.00 0.00 44 1016.6
20260902204513 96 83 2.0 7.0 0.00 0.00 0.00 46 1016.7
20260902204008 95 68 3.0 7.0 0.00 0.00 0.00 46 1016.7
20260902203506 94 44 3.0 8.0 0.00 0.00 0.00 48 1016.8
20260902203010 93 340 3.0 9.0 0.00 0.00 0.00 49 1016.7
20260902202506 93 360 6.0 9.0 0.00 0.00 0.00 49 1016.8
20260902202009 93 360 3.0 9.0 0.00 0.00 0.00 48 1017.0
20260902201510 93 179 4.0 8.0 0.00 0.00 0.00 47 1017.1
20260902201006 94 65 4.0 8.0 0.00 0.00 0.00 47 1017.3
20260902200506 94 177 3.0 7.0 0.00 0.00 0.00 49 1017.2
20260902200015 94 158 2.0 6.0 0.00 0.00 0.00 47 1017.2
20260902195508 93 116 1.0 4.0 0.00 0.00 0.00 46 1017.2
20260902195009 93 200 2.0 4.0 0.00 0.00 0.00 47 1017.3
20260902194513 94 243 2.0 5.0 0.00 0.00 0.00 44 1017.3
20260902194006 94 104 1.0 7.0 0.00 0.00 0.00 45 1017.4
20260902193507 95 49 3.0 11.0 0.00 0.00 0.00 44 1017.4
20260902193011 96 62 4.0 11.0 0.00 0.00 0.00 44 1017.4
20260902192506 95 85 7.0 14.0 0.00 0.00 0.00 45 1017.5
20260902192006 94 57 6.0 14.0 0.00 0.00 0.00 48 1017.6
20260902191515 93 64 5.0 9.0 0.00 0.00 0.00 49 1017.7
20260902191005 93 134 2.0 5.0 0.00 0.00 0.00 49 1017.9
20260902190510 93 9 2.0 5.0 0.00 0.00 0.00 50 1018.0
20260902190002 93 44 3.0 5.0 0.00 0.00 0.00 49 1018.0
20260902185503 93 51 2.0 5.0 0.00 0.00 0.00 48 1018.0
20260902185001 94 37 2.0 9.0 0.00 0.00 0.00 48 1018.2
20260902184502 94 54 4.0 9.0 0.00 0.00 0.00 46 1018.2
20260902184002 94 9 5.0 9.0 0.00 0.00 0.00 46 1018.2
20260902183502 95 360 3.0 9.0 0.00 0.00 0.00 45 1018.1
20260902183003 95 64 3.0 9.0 0.00 0.00 0.00 46 1018.2
20260902182501 95 38 1.0 4.0 0.00 0.00 0.00 45 1018.3
20260902182004 94 242 0.0 4.0 0.00 0.00 0.00 47 1018.3
20260902181503 93 273 1.0 7.0 0.00 0.00 0.00 45 1018.3
20260902181002 93 30 1.0 8.0 0.00 0.00 0.00 47 1018.5
20260902180502 93 99 4.0 8.0 0.00 0.00 0.00 46 1018.5
20260902180004 94 69 6.0 7.0 0.00 0.00 0.00 45 1018.6
20260902175501 95 72 4.0 7.0 0.00 0.00 0.00 43 1018.6
20260902175003 96 75 3.0 7.0 0.00 0.00 0.00 43 1018.7
20260902174503 96 94 4.0 7.0 0.00 0.00 0.00 42 1018.8
20260902174003 95 158 3.0 7.0 0.00 0.00 0.00 49 1018.9
20260902173505 94 348 2.0 8.0 0.00 0.00 0.00 45 1018.9
20260902173003 94 63 5.0 7.0 0.00 0.00 0.00 46 1019.1
20260902172501 94 55 4.0 7.0 0.00 0.00 0.00 45 1019.1
20260902172005 94 57 3.0 9.0 0.00 0.00 0.00 48 1019.1
20260902171503 94 11 4.0 9.0 0.00 0.00 0.00 49 1019.0
20260902171005 93 61 2.0 5.0 0.00 0.00 0.00 50 1019.2
20260902170502 92 94 3.0 6.0 0.00 0.00 0.00 54 1019.2
20260902170006 91 93 3.0 6.0 0.00 0.00 0.00 52 1019.3
20260902165503 92 74 3.0 6.0 0.00 0.00 0.00 51 1019.4
20260902165002 92 72 3.0 6.0 0.00 0.00 0.00 50 1019.4
20260902164503 93 145 1.0 6.0 0.00 0.00 0.00 48 1019.5
20260902164005 93 107 4.0 7.0 0.00 0.00 0.00 47 1019.6
20260902163503 93 86 3.0 10.0 0.00 0.00 0.00 47 1019.8
20260902163004 93 142 7.0 10.0 0.00 0.00 0.00 48 1019.8
20260902162502 92 116 1.0 6.0 0.00 0.00 0.00 49 1019.8
20260902162007 92 134 2.0 7.0 0.00 0.00 0.00 49 1019.9
20260902161508 92 101 3.0 7.0 0.00 0.00 0.00 49 1019.9
20260902161002 92 117 4.0 7.0 0.00 0.00 0.00 49 1019.9
20260902160501 92 43 2.0 5.0 0.00 0.00 0.00 50 1019.9
20260902160004 92 38 2.0 6.0 0.00 0.00 0.00 52 1020.0
20260902155503 91 11 3.0 6.0 0.00 0.00 0.00 51 1020.1
20260902155003 92 263 1.0 5.0 0.00 0.00 0.00 52 1020.1
20260902154503 91 348 3.0 5.0 0.00 0.00 0.00 52 1020.1
20260902154002 91 308 2.0 3.0 0.00 0.00 0.00 51 1020.2
20260902153506 91 9 1.0 4.0 0.00 0.00 0.00 52 1020.2
20260902153005 91 335 1.0 4.0 0.00 0.00 0.00 53 1020.2
20260902152504 91 327 2.0 4.0 0.00 0.00 0.00 53 1020.1